International Virtual Aviation Organisation

Russian Federation and Kazakhstan MCD

 

Карточка аэропорта UWWW

Внимание!
Информация на этой странице в стадии наполнения.
Если вы не увидели какой-то информации, или заметили неточность - пожалуйста сообщите нам!
Спасибо!
Команда RU-STAFF
Название аэропортаКурумоч
Название аэропорта (англ.)Kurumoch
Превышение476 ft. (145.1 m.)
Координаты53°30.102', 50°9.3000000000001'
Высота перехода900m
Эшелон переходаQFE>=749mm:FL050; QFE<749=>722:FL060; QFE<722:FL070
Коды ответчика4140-4177
Зона ОрВДСамара РПИ (UWWW)
Данные METARUWWW 281400Z 14004MPS 9999 BKN019 M02/M03 Q1034 R15/450540 NOSIG RMK QFE763/1018
Проноз погоды (TAF)UWWW 281056Z 2812/2912 14003G08MPS 3100 -SN BR BKN007 TXM02/2812Z TNM05/2903Z TEMPO 2812/2907 0300 FZFG VV002 TEMPO 2907/2912 16006G12MPS BKN004
NOTAMshow/hide NOTAM
AWOS   TABLE

Информация о ВПП

ВПП Длина ВПП (м.) Покрытие Курс ВПП Частота ILS
232553Асфальтобетон229109.7
052553Асфальтобетон49110.5
333003Железобетон328111.1
153003Железобетон148111.9

Диспетчерские позиции

Позывной Наименование органа УВД Частота
UWWW_GNDСамара-Руление119.000
UWWW_TWRСамара-Старт118.200
UWWW_R_APPСамара-Круг128.000
UWWW_APPСамара-Подход124.600
UWWWFM1Машина сопровождения119.000



Спутниковое изображение